Theta_e
317 318 318 320 315 313 313 312 311 310 311 316 315 315 314 313 312 312 311 310 310 309 307 307 306 306 307 308 308 309 310 311 313 313 319 323 322 325 326 326 326 327 327 328
316 316 315 317 316 316 317 316 315 316 317 316 316 315 313 312 312 311 311 309 310 307 305 304 304 304 304 304 305 307 310 312 314 316 321 321 320 320 321 320 321 321 325 324
316 311 312 315 317 318 316 316 315 316 315 314 311 310 308 308 310 311 310 309 308 308 306 302 301 301 301 302 302 304 307 309 313 319 320 319 318 315 313 311 314 313 313 313
315 313 312 314 315 314 317 313 314 317 315 315 312 310 311 310 310 310 310 308 307 306 303 300 300 299 300 300 300 300 304 307 310 316 318 316 315 309 306 306 306 304 304 304
312 315 315 315 315 313 315 314 315 316 316 315 314 313 307 308 310 309 309 307 305 303 301 299 299 298 298 298 298 298 300 303 305 309 312 313 312 307 304 303 302 299 299 298
311 313 313 313 314 313 313 314 313 312 312 311 313 308 304 307 311 310 309 306 304 301 299 298 297 296 296 296 296 297 298 299 301 304 305 306 304 301 301 300 298 295 294 294
315 315 315 314 316 315 314 313 309 311 316 311 310 311 308 307 309 309 309 306 302 299 297 296 295 295 294 295 295 296 296 296 297 298 299 300 300 299 298 296 294 292 292 291
315 316 315 314 314 316 314 312 309 309 312 311 309 314 311 309 307 308 307 304 301 299 297 296 296 295 295 294 294 295 295 293 292 293 294 293 293 293 293 292 291 290 290 290
309 311 313 314 314 314 316 318 310 311 299 308 309 308 307 309 308 306 305 303 302 300 298 296 296 295 295 294 293 293 293 292 291 290 291 291 291 290 290 289 289 289 289 289
311 313 312 314 313 312 315 312 317 308 309 308 309 309 309 309 310 307 305 304 303 301 299 297 296 295 295 294 293 292 291 291 290 289 289 289 288 288 288 288 288 288 288 288
310 311 315 314 316 316 315 316 315 311 308 310 309 309 303 309 308 307 305 304 303 301 300 297 296 296 295 294 293 292 291 290 289 288 288 287 287 287 287 287 287 287 287 287
310 312 315 316 310 310 313 314 313 314 314 308 309 309 305 304 306 306 305 305 303 301 300 298 297 296 295 294 292 291 290 289 288 287 286 286 286 285 285 285 285 285 286 286
311 311 311 317 314 310 315 313 313 310 309 313 312 309 304 305 305 305 306 305 305 304 301 298 296 295 295 293 292 291 290 289 288 286 286 285 285 284 284 284 284 285 285 285
311 311 308 311 311 311 317 315 312 314 316 314 311 309 307 306 306 305 305 304 303 302 301 299 297 296 296 294 293 291 289 288 287 286 285 284 284 284 283 283 283 283 284 283
311 313 310 309 309 310 310 313 314 314 314 314 311 310 309 308 307 305 305 304 303 301 299 298 297 296 297 296 295 292 290 288 286 285 284 284 283 283 283 283 282 282 282 282
310 312 311 308 308 306 308 308 309 310 311 311 311 311 307 307 306 305 304 302 300 298 297 297 297 298 296 295 294 292 290 287 286 285 284 283 282 282 282 282 281 281 281 280
311 307 308 310 304 307 307 302 306 307 308 310 312 311 308 306 305 303 301 299 298 298 298 297 296 296 297 297 295 291 289 287 284 284 283 282 281 281 281 281 280 279 279 279
307 304 301 301 298 305 303 299 304 305 305 305 305 304 305 305 301 299 298 299 299 298 296 295 294 293 293 294 292 289 287 285 284 282 282 281 280 280 280 280 280 279 279 279
302 301 299 299 288 298 301 300 301 304 304 303 303 304 302 299 297 296 296 295 296 295 294 293 291 290 290 290 288 286 284 283 282 281 281 280 280 279 279 280 279 279 278 278
301 300 299 282 293 298 299 299 298 299 302 299 301 301 298 294 297 298 295 293 293 292 291 290 288 288 287 286 285 284 282 281 281 281 280 280 279 279 279 279 279 278 278 277
293 291 299 286 291 296 297 297 297 298 300 298 296 297 294 295 296 293 292 293 292 291 288 287 286 286 285 284 283 281 280 280 281 280 280 279 279 279 279 278 278 278 277 276
301 299 292 288 294 303 295 295 299 299 295 296 294 294 294 292 293 291 290 290 289 286 284 284 283 283 283 282 281 280 279 280 280 279 279 278 278 278 278 278 277 277 276 276
301 300 300 303 304 298 293 297 295 294 296 293 294 293 292 292 291 291 290 288 287 287 284 283 282 281 280 280 280 280 279 279 278 277 277 277 277 277 277 277 276 276 275 274
294 290 297 298 300 296 294 293 293 292 293 293 292 292 290 292 292 291 289 287 284 285 283 282 279 278 278 278 279 280 278 277 277 277 276 276 276 276 276 276 276 275 274 273
293 293 291 292 294 292 293 293 294 293 291 293 292 292 291 290 290 288 288 286 284 284 282 280 278 277 278 278 278 278 278 277 276 276 275 275 275 275 275 275 275 274 273 272
289 292 296 297 297 295 297 290 292 291 292 291 291 290 286 286 288 284 284 285 285 282 280 278 277 277 277 276 276 276 276 276 276 274 274 274 274 274 274 273 271 271 271 271
Wind_Speed
1 4 8 11 4 3 5 3 4 3 4 4 6 8 9 9 6 8 8 7 7 5 6 7 7 6 5 4 2 3 5 7 8 5 2 3 4 6 7 6 6 5 3 4
4 6 4 4 3 4 1 3 4 1 1 5 3 10 10 9 7 9 11 9 9 6 6 7 7 6 6 5 5 5 6 6 6 3 4 3 9 8 10 9 8 7 4 3
6 4 8 6 4 5 2 3 2 0 3 2 5 7 6 6 6 7 7 8 7 12 10 6 7 6 6 7 7 7 6 5 5 5 7 9 10 11 8 8 6 6 4 3
3 3 6 5 4 6 4 6 4 3 3 3 2 5 6 4 7 5 5 7 8 9 7 7 10 7 6 6 5 5 5 6 7 6 9 10 8 6 4 5 5 4 3 2
7 5 4 3 5 7 5 5 5 2 1 2 1 1 7 4 6 6 1 4 5 7 9 8 9 8 6 5 4 5 6 8 8 6 5 6 8 7 8 5 3 3 3 3
5 1 6 9 4 6 6 6 6 4 2 3 7 7 5 4 4 1 3 5 6 7 7 9 9 8 7 5 4 5 6 8 6 5 5 6 8 9 8 6 3 2 2 3
2 2 1 3 6 2 4 6 1 2 2 6 1 2 7 7 5 4 8 9 7 6 7 6 7 7 5 4 3 3 4 6 4 4 5 4 6 7 6 6 5 4 4 4
10 4 8 6 7 7 5 6 5 7 4 4 3 6 5 2 5 5 8 8 7 6 5 6 7 7 6 4 2 2 2 2 2 3 4 5 5 6 7 7 6 6 5 4
5 4 2 2 3 8 5 6 5 5 2 2 3 6 9 2 6 7 7 7 6 6 7 7 8 8 7 7 5 2 4 2 1 2 2 3 4 4 5 6 5 5 5 5
6 3 1 1 4 4 5 7 2 2 1 4 3 5 4 2 3 4 5 6 6 5 6 5 7 9 9 8 8 8 6 5 3 2 3 3 3 4 4 5 5 5 6 6
4 3 0 5 6 10 4 4 3 5 4 4 1 5 5 4 2 8 7 7 6 6 5 4 10 12 13 13 12 11 9 8 7 7 6 5 5 4 4 5 6 6 7 6
4 3 5 11 2 3 4 5 5 4 4 3 2 5 3 5 4 6 6 5 4 6 7 7 12 14 17 19 16 15 12 11 10 9 8 6 5 5 5 6 7 7 7 7
7 3 4 1 3 4 4 4 6 4 3 6 5 4 4 4 6 5 7 4 4 5 5 4 10 17 21 22 19 18 17 15 13 12 10 8 7 6 6 6 7 7 8 8
7 2 4 5 3 5 7 9 6 11 5 5 5 3 5 4 5 4 5 5 5 7 8 7 8 15 23 23 23 23 20 17 16 14 12 9 8 7 7 7 7 8 9 9
6 6 4 2 2 2 4 10 15 14 11 8 7 9 8 7 7 8 6 3 5 7 7 7 8 13 22 25 26 25 23 21 19 16 14 12 10 9 8 9 9 9 11 11
3 3 4 3 2 1 4 8 9 10 7 7 4 10 6 7 4 6 7 6 6 7 7 7 4 6 11 16 21 24 27 26 22 19 16 13 12 11 11 11 11 11 12 11
6 5 3 2 4 4 7 7 7 5 5 11 14 16 6 8 9 7 8 7 7 8 7 7 6 8 12 13 13 20 24 26 24 20 17 15 14 13 13 13 12 12 11 11
9 6 2 2 2 4 5 2 5 9 7 11 6 5 9 11 6 6 7 6 7 7 7 5 6 10 12 10 8 12 17 25 25 21 19 17 16 16 16 15 13 12 12 12
4 5 3 4 4 5 5 5 8 8 13 15 13 16 8 2 2 7 7 8 8 5 5 6 7 9 9 6 7 12 18 23 24 22 20 19 18 18 17 17 17 15 14 12
5 4 4 3 5 8 6 6 7 7 8 10 11 12 9 7 3 8 5 5 7 10 9 8 7 6 5 6 10 15 20 24 24 22 21 19 19 18 19 18 18 16 14 13
3 3 8 3 3 7 8 5 5 6 7 6 9 10 8 7 7 4 7 5 5 9 10 8 7 8 8 10 13 17 20 23 22 21 20 19 18 20 19 18 16 18 16 15
8 7 4 3 2 13 9 4 11 7 4 5 7 7 8 8 6 6 8 7 8 12 11 11 10 10 10 13 17 19 22 21 20 21 21 21 21 19 18 19 18 18 17 16
3 7 6 10 8 2 8 8 12 6 7 7 6 6 8 7 6 8 7 9 13 15 16 14 14 12 14 17 19 22 22 23 23 22 22 21 20 20 20 20 19 18 17 16
4 2 4 5 9 9 10 6 5 8 8 6 5 6 8 7 9 9 6 7 7 16 19 18 16 17 18 20 21 20 22 24 24 24 23 23 23 22 19 18 17 17 17 16
5 9 5 6 8 3 6 12 12 11 8 1 2 5 9 7 10 8 7 7 12 17 19 20 22 21 22 22 21 20 23 24 25 25 26 25 24 23 21 18 16 15 14 13
6 7 7 7 10 7 11 7 10 8 8 9 7 7 6 8 11 5 7 14 16 18 19 21 23 22 22 24 23 23 25 27 28 27 26 26 25 23 20 18 14 10 10 9
Wind_Direction
140 126 193 199 140 85 140 155 200 220 230 170 234 258 255 262 270 263 251 244 241 165 138 124 116 120 113 92 41 355 335 332 322 308 222 156 156 150 148 143 138 148 156 277
62 225 170 145 150 108 15 171 244 298 71 167 292 274 261 258 238 226 232 224 199 162 161 136 124 108 87 73 49 26 14 4 7 0 113 125 140 126 122 116 107 99 112 139
170 217 163 148 156 170 220 200 220 270 354 32 348 279 273 275 254 248 236 220 177 177 168 151 124 106 94 71 53 41 34 24 41 76 130 150 139 126 108 100 91 75 76 61
231 253 150 142 180 143 213 206 163 141 61 236 21 286 302 285 287 283 256 195 170 144 126 137 143 131 118 95 79 66 57 56 63 104 156 165 168 145 133 114 98 84 73 41
237 173 143 146 180 158 213 141 158 169 119 355 276 288 271 294 278 245 157 139 125 130 133 138 144 141 128 112 91 80 68 60 62 79 133 173 168 156 153 141 124 76 51 34
203 25 157 186 145 161 134 88 57 54 85 299 207 179 262 222 235 38 118 129 129 123 118 127 144 150 146 145 124 85 69 65 59 73 103 132 140 148 152 154 143 104 98 95
152 225 269 148 95 62 111 107 37 342 238 232 17 197 262 266 272 234 177 158 143 127 138 148 161 168 165 162 130 90 75 77 81 81 98 120 148 160 160 152 150 141 118 95
177 219 181 187 178 165 176 154 155 200 199 263 88 233 248 239 7 349 112 119 126 136 153 180 191 188 184 195 192 171 102 143 115 114 106 115 121 140 145 144 142 126 113 103
139 253 128 164 146 141 187 200 160 106 39 47 226 285 300 120 53 66 96 121 145 173 191 200 203 209 207 212 211 211 218 218 189 113 118 141 146 144 139 132 131 131 121 118
217 110 289 122 102 61 148 149 99 28 174 248 276 280 245 315 152 102 135 147 190 201 209 212 222 225 227 230 226 221 224 229 231 227 203 180 164 150 154 142 129 129 135 135
164 103 114 125 213 174 147 178 176 130 154 186 245 265 226 302 268 169 176 190 199 222 242 231 234 231 229 230 227 225 224 227 225 226 219 202 182 169 162 150 139 141 141 137
183 133 181 198 355 300 203 195 154 151 184 232 164 270 332 347 69 128 164 177 212 227 232 226 233 234 232 231 226 224 222 222 223 220 213 203 188 173 170 156 146 146 144 138
168 179 120 82 313 339 224 182 178 127 109 194 152 260 345 115 96 124 138 176 232 259 260 244 237 235 240 239 232 228 224 221 220 214 210 200 194 185 173 158 152 151 146 140
115 129 169 199 212 144 190 195 187 196 204 181 204 177 257 228 153 155 176 207 245 246 245 247 258 251 251 247 240 233 227 223 218 211 206 201 196 188 173 161 155 152 150 140
123 192 199 272 209 194 176 179 200 210 208 205 175 201 225 234 220 191 224 253 229 252 263 245 246 248 253 248 243 237 229 219 214 209 205 200 192 184 173 165 160 155 152 141
165 130 159 221 319 99 224 217 207 219 228 256 240 256 218 242 281 249 241 253 270 282 283 297 295 282 260 250 244 235 224 213 209 206 201 195 188 181 174 168 161 153 145 140
131 124 111 242 353 22 278 210 196 188 187 223 231 242 207 226 235 230 249 249 262 272 280 290 289 299 308 302 265 227 217 208 202 199 195 190 184 177 170 163 156 150 145 141
144 114 82 173 50 256 258 335 198 198 203 210 215 203 209 225 219 213 213 221 243 246 261 266 284 304 316 307 259 218 205 198 194 192 189 187 182 176 168 166 162 152 147 142
125 126 123 156 196 300 284 199 164 172 241 221 217 234 230 189 84 274 221 213 228 224 221 246 271 287 296 273 215 195 186 188 188 187 188 186 185 178 175 171 164 162 154 149
85 69 130 110 152 218 236 214 137 99 261 236 201 223 220 135 215 254 218 186 204 213 222 239 261 270 254 222 201 188 184 183 184 186 186 185 186 183 179 176 170 161 161 155
90 41 188 169 210 281 236 190 145 138 235 229 176 211 167 192 216 196 158 190 215 223 220 233 237 239 230 207 196 187 185 187 186 183 183 183 183 181 179 172 174 164 162 161
157 152 173 95 83 261 165 84 171 197 193 187 192 200 198 217 193 196 220 236 216 209 205 211 207 215 210 203 195 187 186 184 182 181 179 179 178 179 174 173 173 169 168 165
207 184 183 187 211 197 202 194 219 160 179 212 196 191 197 212 220 227 221 224 227 220 217 213 207 201 201 203 200 189 185 178 176 177 176 176 174 174 175 173 177 169 177 171
252 171 189 99 241 210 220 244 237 196 221 211 211 177 171 211 230 243 241 230 219 222 219 214 202 198 195 197 199 201 184 181 180 177 176 173 173 173 175 177 178 179 181 178
192 149 169 261 272 6 243 226 230 232 240 161 164 193 224 218 251 228 241 225 220 225 222 216 213 209 203 195 197 192 189 185 181 180 176 175 177 175 174 179 180 186 189 195
177 183 183 226 212 194 246 202 214 217 233 236 231 265 244 190 235 195 225 223 223 222 220 214 217 214 203 194 192 190 190 188 184 173 174 176 175 176 175 168 157 163 164 153